Probability
0 0 0 0 0 0 0 0 0 0 0 0 0 0 0 0 3 3 0 0 0 0 0 0 0 0 0 0 0 0 0 0 0 0 0 0 0 0 0 0 0 0 0
0 0 0 0 0 0 0 0 0 0 0 0 0 0 0 0 0 0 0 0 0 0 0 0 0 0 0 0 0 0 0 0 0 0 0 0 0 0 0 0 0 0 0
0 0 0 0 0 0 0 0 0 0 0 0 0 0 0 0 0 0 0 0 0 0 0 0 0 0 0 0 0 0 0 0 0 0 0 0 0 0 0 0 0 0 0
0 0 0 0 0 0 0 0 0 0 0 0 0 0 0 0 0 0 0 0 0 0 0 0 0 0 0 0 0 0 0 0 0 0 0 0 0 0 0 0 0 0 0
0 0 0 0 0 0 0 0 0 0 0 0 0 0 0 0 0 0 0 0 0 0 0 0 0 0 0 0 0 0 0 0 0 0 0 0 0 0 0 0 0 0 0
0 0 0 0 0 0 0 0 0 0 0 0 0 0 0 0 0 0 0 0 0 0 0 0 0 0 0 0 0 0 0 0 0 0 0 0 0 0 0 0 0 0 0
0 0 0 0 0 0 0 0 0 0 0 0 0 0 0 0 0 0 0 0 0 0 0 0 0 0 0 0 0 0 0 0 0 0 0 0 0 0 0 0 0 0 0
0 0 0 0 0 0 0 0 0 0 0 0 0 0 0 0 0 0 0 0 0 0 0 0 0 0 0 0 0 0 0 0 0 0 0 0 0 0 0 0 0 0 0
0 0 0 0 0 0 0 0 0 0 0 0 0 0 0 0 0 0 0 0 0 0 0 0 0 0 0 0 0 0 0 0 0 0 0 0 0 0 0 0 0 0 0
0 0 0 0 0 0 0 0 0 0 0 0 0 0 0 0 0 0 0 0 0 0 0 0 0 0 0 0 0 0 0 0 0 0 0 0 0 0 0 0 0 0 0
0 0 0 0 0 0 0 0 0 0 0 0 0 0 0 0 0 0 0 0 0 0 0 0 0 0 0 0 0 0 0 0 0 0 0 0 0 0 0 0 0 0 0
0 0 0 0 0 0 0 0 0 0 0 0 0 0 0 0 0 0 0 0 0 0 0 0 0 0 0 0 0 0 0 0 0 0 0 0 0 0 0 0 0 0 0
0 0 0 0 0 0 0 0 0 0 0 0 0 0 0 0 0 0 0 0 0 0 0 0 0 0 0 0 0 0 0 0 0 0 0 0 0 0 0 0 0 0 0
0 0 0 0 0 0 0 0 0 0 0 0 0 0 0 0 0 0 0 0 0 0 0 0 0 0 0 0 0 0 0 0 0 0 0 0 0 0 0 0 0 0 0
0 0 0 0 0 0 0 0 0 0 0 0 0 0 0 0 0 0 0 0 0 0 0 0 0 0 0 0 0 0 0 0 0 0 0 0 0 0 0 0 0 0 0
0 0 0 0 0 0 0 0 0 0 0 0 0 0 0 0 0 0 0 0 0 0 0 0 0 0 0 0 0 0 0 0 0 0 0 0 0 0 0 0 0 0 0
0 0 0 0 0 0 0 0 0 0 0 0 0 0 0 0 0 0 0 0 0 0 0 0 0 0 0 0 0 0 0 0 0 0 0 0 0 0 0 0 0 0 0
0 0 0 0 0 0 0 0 0 0 0 0 0 0 0 0 0 0 0 0 0 0 0 0 0 0 0 0 0 0 0 0 0 0 0 0 0 0 0 0 0 0 0
0 0 0 0 0 0 0 0 0 0 0 0 0 0 0 0 0 0 0 0 0 0 0 0 0 0 0 0 0 0 0 0 0 0 0 0 0 0 0 0 0 0 0
0 0 0 0 0 0 0 0 0 0 0 0 0 0 0 0 0 0 0 0 0 0 0 0 0 0 0 0 0 0 0 0 0 0 0 0 0 0 0 0 0 0 0
0 0 0 0 0 0 0 0 0 0 0 0 0 0 0 0 0 0 0 0 0 0 0 0 0 0 0 0 0 0 0 0 0 0 0 0 0 0 0 0 0 0 0
0 0 0 0 0 0 0 0 0 0 0 0 0 0 0 0 0 0 0 0 0 0 0 0 0 0 0 0 0 0 0 0 0 0 0 0 0 0 0 0 0 0 0
0 0 0 0 0 0 0 0 0 0 0 0 0 0 0 0 0 0 0 0 0 0 0 0 0 0 0 0 0 0 0 0 0 0 0 0 0 0 0 0 0 0 0
0 0 0 0 0 0 0 0 0 0 0 0 0 0 0 0 0 0 0 0 0 0 0 0 0 0 0 0 0 0 0 0 0 0 0 0 0 0 0 0 0 0 0
0 0 0 0 0 0 0 0 0 0 0 0 0 0 0 0 0 0 0 0 0 0 0 0 0 0 0 0 0 0 0 0 0 0 0 0 0 0 0 0 0 0 0
0 0 0 0 0 0 0 0 0 0 0 0 0 0 0 0 0 0 0 0 0 0 0 0 0 0 0 0 0 0 0 0 0 0 0 0 0 0 0 0 0 0 0
Height
5806 5806 5806 5806 5806 5806 5806 5806 5806 5805 5805 5804 5803 5802 5801 5800 5798 5797 5795 5793 5792 5790 5789 5788 5787 5786 5785 5784 5783 5782 5782 5781 5780 5780 5779 5778 5778 5777 5777 5776 5776 5775 5774
5801 5801 5801 5801 5801 5801 5801 5801 5800 5800 5799 5799 5798 5797 5795 5794 5793 5791 5789 5788 5786 5785 5783 5782 5781 5780 5779 5778 5777 5776 5775 5775 5774 5773 5773 5772 5772 5771 5771 5770 5769 5768 5768
5795 5795 5796 5796 5795 5795 5795 5795 5794 5794 5793 5793 5792 5791 5790 5789 5787 5786 5784 5782 5781 5779 5778 5776 5775 5774 5773 5772 5771 5770 5769 5768 5767 5767 5766 5765 5765 5764 5764 5763 5763 5762 5761
5789 5789 5790 5790 5789 5789 5789 5788 5788 5788 5787 5787 5786 5785 5784 5783 5781 5779 5778 5776 5775 5773 5772 5770 5769 5768 5767 5766 5764 5763 5763 5762 5761 5760 5759 5759 5758 5757 5757 5757 5756 5755 5755
5782 5783 5783 5783 5783 5783 5782 5782 5781 5781 5781 5781 5780 5779 5778 5776 5775 5773 5771 5770 5768 5767 5766 5765 5763 5762 5761 5759 5758 5757 5756 5755 5754 5753 5752 5752 5751 5751 5750 5750 5749 5749 5748
5775 5775 5776 5776 5776 5775 5775 5775 5774 5774 5774 5774 5773 5772 5771 5770 5768 5766 5765 5764 5762 5761 5760 5759 5757 5756 5754 5753 5752 5751 5750 5749 5747 5746 5745 5745 5744 5744 5743 5743 5742 5742 5741
5767 5767 5768 5768 5768 5768 5768 5767 5767 5767 5767 5766 5766 5765 5764 5763 5761 5760 5758 5757 5756 5755 5754 5752 5751 5750 5748 5747 5745 5744 5743 5742 5741 5739 5738 5737 5737 5737 5736 5736 5735 5735 5734
5759 5759 5760 5760 5760 5760 5760 5759 5759 5759 5759 5759 5758 5757 5757 5756 5754 5753 5751 5750 5749 5748 5747 5746 5745 5743 5742 5740 5738 5737 5736 5735 5733 5732 5732 5731 5730 5729 5729 5729 5728 5728 5727
5751 5751 5751 5751 5751 5751 5751 5751 5751 5751 5751 5750 5750 5749 5749 5748 5747 5745 5744 5743 5742 5741 5740 5739 5738 5736 5735 5733 5731 5730 5729 5727 5726 5725 5725 5724 5723 5723 5722 5722 5721 5721 5720
5743 5743 5743 5743 5743 5743 5743 5742 5742 5742 5742 5742 5741 5741 5741 5740 5739 5738 5736 5735 5734 5733 5732 5731 5730 5729 5727 5726 5724 5723 5722 5720 5719 5718 5718 5717 5716 5716 5715 5714 5714 5713 5712
5734 5734 5734 5734 5734 5734 5734 5733 5733 5733 5733 5733 5732 5732 5732 5731 5731 5730 5729 5728 5727 5726 5725 5724 5722 5721 5720 5718 5717 5716 5714 5713 5712 5711 5711 5710 5709 5708 5707 5706 5706 5705 5705
5724 5724 5724 5724 5724 5724 5724 5724 5724 5723 5723 5723 5723 5723 5722 5722 5722 5721 5720 5719 5718 5717 5717 5715 5714 5713 5711 5710 5708 5707 5706 5705 5705 5704 5703 5702 5701 5700 5699 5699 5698 5697 5697
5715 5715 5715 5715 5715 5715 5715 5714 5714 5713 5713 5714 5714 5714 5714 5713 5713 5712 5711 5710 5709 5709 5708 5707 5706 5705 5703 5702 5700 5699 5698 5697 5697 5696 5695 5694 5693 5692 5691 5691 5690 5689 5688
5706 5706 5705 5705 5705 5705 5705 5704 5704 5703 5703 5704 5704 5704 5704 5704 5703 5703 5702 5701 5700 5699 5698 5697 5697 5696 5695 5693 5692 5691 5690 5689 5688 5688 5687 5685 5684 5684 5683 5682 5682 5681 5680
5696 5696 5696 5695 5695 5695 5695 5694 5694 5693 5693 5694 5694 5694 5694 5694 5694 5693 5692 5692 5691 5690 5689 5688 5688 5687 5686 5685 5684 5682 5682 5681 5680 5679 5678 5677 5676 5675 5674 5673 5673 5672 5671
5686 5686 5686 5686 5685 5685 5685 5685 5684 5684 5683 5683 5683 5683 5684 5684 5683 5683 5682 5682 5681 5681 5680 5679 5679 5678 5677 5676 5675 5674 5673 5672 5671 5670 5669 5668 5667 5666 5665 5664 5663 5663 5662
5676 5676 5676 5676 5675 5675 5675 5674 5674 5674 5673 5673 5673 5673 5673 5673 5673 5673 5672 5672 5672 5671 5671 5670 5669 5669 5668 5667 5666 5665 5664 5663 5661 5660 5659 5658 5657 5656 5655 5655 5654 5653 5652
5666 5666 5666 5666 5665 5665 5665 5664 5664 5664 5664 5663 5663 5663 5663 5663 5663 5663 5663 5662 5662 5662 5661 5661 5660 5659 5658 5657 5656 5655 5654 5653 5652 5651 5650 5649 5648 5647 5646 5645 5644 5643 5642
5656 5656 5656 5655 5655 5654 5654 5654 5653 5653 5653 5653 5653 5653 5653 5653 5653 5653 5652 5653 5653 5652 5652 5651 5650 5649 5648 5647 5646 5646 5645 5643 5642 5641 5640 5639 5638 5637 5636 5635 5634 5633 5632
5645 5645 5645 5645 5644 5644 5643 5643 5643 5643 5643 5643 5643 5643 5643 5643 5643 5643 5642 5642 5642 5642 5641 5641 5640 5639 5639 5638 5637 5636 5634 5633 5632 5631 5630 5629 5628 5627 5626 5625 5624 5624 5623
5634 5634 5633 5633 5633 5633 5632 5632 5632 5632 5632 5633 5633 5633 5632 5633 5633 5632 5632 5632 5631 5631 5631 5631 5630 5629 5628 5628 5627 5626 5625 5624 5623 5622 5621 5620 5619 5618 5617 5616 5615 5614 5613
5623 5623 5622 5622 5622 5622 5622 5622 5622 5621 5622 5622 5622 5622 5622 5622 5622 5622 5622 5621 5621 5621 5620 5620 5620 5619 5618 5617 5616 5615 5615 5614 5613 5612 5611 5610 5610 5609 5607 5606 5605 5604 5603
5612 5612 5611 5611 5611 5610 5610 5610 5610 5610 5611 5611 5611 5611 5610 5610 5610 5611 5611 5611 5610 5610 5610 5610 5609 5609 5608 5607 5606 5605 5605 5604 5603 5603 5602 5601 5600 5599 5598 5597 5596 5594 5593
5601 5601 5600 5600 5600 5599 5599 5599 5599 5599 5599 5599 5599 5599 5599 5600 5600 5600 5600 5600 5600 5600 5600 5599 5599 5598 5597 5596 5595 5595 5595 5594 5593 5593 5592 5592 5591 5590 5589 5588 5586 5585 5584
5590 5589 5589 5589 5588 5588 5588 5587 5587 5587 5588 5588 5588 5589 5589 5589 5589 5589 5589 5589 5589 5590 5589 5589 5589 5588 5587 5587 5586 5585 5585 5584 5584 5583 5583 5582 5581 5580 5579 5578 5577 5576 5574
5579 5578 5577 5577 5577 5576 5576 5576 5575 5575 5576 5576 5577 5577 5578 5578 5578 5579 5579 5579 5579 5579 5579 5579 5579 5578 5577 5577 5576 5576 5575 5574 5574 5573 5573 5572 5572 5571 5570 5569 5568 5566 5565
Wind_Speed
19 19 18 18 18 18 18 18 18 18 18 18 17 18 18 18 18 19 19 19 19 19 19 19 19 19 19 19 19 19 19 19 19 20 20 20 20 20 20 20 21 21 21
20 19 18 19 19 19 20 20 20 19 19 18 18 19 19 19 19 19 19 20 20 20 19 19 20 20 19 19 20 20 20 20 20 20 20 21 21 21 21 21 21 22 22
21 21 20 20 20 21 21 21 21 21 20 20 20 20 20 20 20 20 20 21 20 20 20 19 19 19 19 20 20 20 20 20 20 21 20 21 21 22 22 21 21 22 23
22 23 23 22 22 22 23 22 22 22 22 21 21 21 21 21 21 21 22 21 21 20 20 20 19 19 20 20 21 20 20 20 20 21 21 21 21 22 22 23 22 23 22
23 24 24 24 24 24 23 24 24 24 23 23 22 22 22 22 22 22 21 21 21 21 20 20 20 20 21 21 21 21 22 21 22 22 22 22 22 22 22 23 23 22 22
23 24 25 25 26 26 25 26 26 25 25 24 24 24 23 23 23 22 22 21 21 21 22 21 21 22 22 22 22 22 22 23 23 23 23 23 23 23 23 23 22 22 22
25 25 26 27 27 27 27 27 27 27 26 26 25 25 25 24 23 23 22 22 22 22 22 22 22 22 23 23 23 24 24 24 24 24 23 23 23 23 23 23 23 23 22
27 27 27 28 28 28 27 28 28 29 28 27 26 26 26 25 25 24 24 24 24 24 24 24 23 23 24 24 24 25 25 25 25 24 23 23 23 23 23 23 23 23 23
27 27 27 28 29 29 29 29 30 30 29 29 28 27 27 26 26 26 26 26 25 25 25 25 25 25 25 25 25 25 25 25 25 24 24 24 24 24 24 24 24 24 24
28 28 29 29 29 30 31 31 31 31 31 30 28 28 28 28 27 27 27 26 26 26 26 26 26 26 26 26 26 25 25 25 25 25 25 25 25 26 26 25 25 26 26
29 30 30 30 30 30 31 32 31 31 31 31 30 29 30 29 29 29 28 28 27 27 27 28 28 27 27 27 26 26 26 26 26 26 26 26 27 27 26 26 26 26 26
30 30 31 31 31 31 31 31 31 31 30 31 31 31 31 31 30 30 29 29 29 29 29 29 29 29 29 29 28 28 27 27 27 27 27 28 28 27 27 26 27 27 27
30 31 31 31 31 31 31 31 31 31 31 30 30 31 31 31 31 30 30 31 30 30 30 30 30 30 30 30 30 30 29 28 27 28 28 28 28 28 28 28 28 27 27
32 32 32 32 32 32 32 32 31 31 31 31 31 31 31 31 31 30 31 31 31 31 30 30 30 30 30 31 30 30 29 29 29 29 29 29 29 29 29 29 29 28 28
32 33 33 33 33 32 32 32 32 31 31 32 31 32 32 31 30 30 31 31 31 30 30 29 29 30 30 30 30 30 29 29 30 29 30 30 30 29 29 30 29 29 29
33 33 33 33 33 33 33 33 33 32 33 33 32 32 32 32 31 30 31 31 30 30 29 29 30 30 31 30 30 30 30 30 29 30 29 29 30 30 30 30 30 30 30
33 33 34 33 33 33 33 33 33 33 33 33 32 32 32 32 32 31 31 31 30 29 29 30 30 30 30 30 30 30 30 30 30 30 30 30 30 31 31 31 31 31 32
34 34 34 34 34 33 33 33 33 33 33 32 32 31 31 32 32 32 31 31 30 30 30 30 31 31 31 31 31 31 31 32 32 31 31 30 30 30 30 31 31 32 32
34 34 34 34 34 34 34 34 33 33 33 33 32 32 32 32 31 31 31 31 31 31 30 30 31 31 31 31 31 32 32 32 32 32 32 31 30 30 30 31 31 32 32
34 34 35 36 36 35 34 34 33 33 33 33 33 33 33 32 32 32 31 32 32 32 32 32 32 31 31 31 31 31 31 31 31 31 31 31 30 30 30 30 30 30 30
34 35 35 35 36 36 35 34 33 33 33 33 34 33 33 33 33 33 32 32 32 32 32 32 32 31 32 32 32 32 32 31 31 31 30 30 29 29 30 30 30 30 30
34 34 34 34 34 34 34 34 33 33 33 33 34 34 35 35 35 34 34 33 33 32 32 32 32 31 32 32 32 32 31 31 30 30 29 29 29 29 29 30 30 31 31
34 33 33 33 33 33 34 34 34 34 34 34 34 34 35 35 35 35 34 34 33 33 32 31 31 32 32 32 31 31 31 31 30 30 30 30 30 30 30 31 31 31 31
34 34 34 34 34 34 35 35 35 35 35 35 35 34 35 35 34 33 33 33 33 32 31 31 31 31 31 31 31 31 31 31 31 31 31 30 31 31 31 31 31 31 30
34 34 34 34 34 34 35 35 35 35 35 35 35 34 34 33 33 33 33 32 32 31 30 31 31 30 30 30 30 30 30 30 31 31 32 32 32 32 32 32 32 31 31
33 33 33 33 33 33 33 33 33 33 34 34 35 35 34 34 33 32 32 32 32 32 32 31 31 31 31 30 30 30 30 29 30 30 31 31 32 32 32 32 32 32 31
Wind_Direction
265 268 270 269 269 273 274 274 276 276 278 281 284 286 288 288 288 289 290 290 290 288 287 288 287 287 286 284 283 284 284 283 283 282 281 281 281 282 281 282 282 281 280
263 267 271 272 273 274 274 274 274 275 276 279 283 285 287 289 289 289 289 288 289 289 288 287 287 287 287 285 284 284 284 285 285 284 282 281 281 282 282 282 281 282 282
263 265 269 271 273 274 273 271 273 275 276 277 280 283 286 288 289 289 289 289 289 288 287 288 288 287 287 286 285 284 284 285 286 285 283 282 282 281 281 282 282 283 282
263 266 269 270 271 272 274 271 272 274 275 278 278 280 282 285 286 287 288 288 288 287 287 287 288 288 287 287 286 285 285 285 286 285 283 282 283 282 281 282 283 283 283
264 266 269 270 271 271 272 271 271 272 274 276 277 278 280 282 284 285 286 286 285 284 284 285 286 287 286 287 287 286 285 285 286 285 283 282 282 283 283 283 284 284 284
266 267 268 269 270 271 272 272 272 272 271 274 276 278 278 280 281 283 284 284 283 283 283 284 285 286 286 288 287 287 285 285 286 284 282 281 281 281 282 282 284 283 283
268 268 268 269 268 269 270 270 271 273 272 272 274 276 277 278 279 280 281 282 282 282 283 283 284 285 285 285 286 287 286 286 286 285 283 282 280 281 282 284 283 282 282
269 270 270 270 269 269 270 271 272 274 274 274 274 276 277 279 279 280 280 280 280 281 282 283 283 284 284 285 285 285 285 285 284 283 282 282 281 282 283 284 284 283 282
269 270 272 271 271 270 271 272 272 273 273 273 273 274 276 277 277 279 280 280 280 280 282 283 284 283 284 284 284 285 285 284 284 283 283 284 283 282 282 284 282 280 282
270 270 270 271 272 272 272 272 273 272 272 273 272 273 274 274 275 276 277 278 279 281 282 283 284 283 284 284 284 284 284 283 282 282 283 283 282 282 282 283 282 281 281
270 270 270 270 270 271 272 273 274 273 272 271 271 272 273 273 274 274 275 276 277 279 281 282 283 284 284 284 283 282 281 280 280 281 282 282 282 282 282 283 282 283 282
270 269 270 270 268 269 271 273 274 274 272 271 271 272 273 273 273 273 275 276 277 278 280 281 281 282 282 282 282 281 280 279 279 280 281 282 282 280 280 281 282 282 282
270 271 271 270 269 270 271 272 274 274 272 271 271 272 273 273 273 274 276 277 278 279 280 281 280 280 282 282 281 279 279 279 279 279 281 282 281 279 279 280 281 281 282
270 271 271 271 271 271 271 273 273 273 272 272 271 272 272 272 272 274 276 277 278 278 279 279 279 280 282 282 281 280 279 279 280 280 281 281 280 279 279 279 279 280 281
270 271 271 271 271 271 272 272 271 271 270 270 271 272 271 271 272 272 274 276 276 276 276 277 278 280 281 281 280 280 280 280 280 281 281 280 278 278 278 278 278 278 279
269 270 270 271 270 270 271 272 272 271 269 268 268 269 269 271 273 274 274 275 275 275 275 277 277 277 278 278 278 280 280 281 281 281 281 280 279 277 277 277 277 277 278
269 271 272 272 272 272 272 272 272 270 269 268 268 268 269 270 270 272 273 273 273 274 276 278 278 277 277 277 278 279 280 281 282 282 281 280 279 278 277 277 277 278 279
269 270 272 273 272 272 272 272 272 270 268 267 266 267 268 270 270 271 271 271 272 274 276 278 278 278 278 278 279 279 280 281 281 281 281 281 281 280 279 279 279 279 279
270 270 271 272 272 272 272 272 272 270 268 266 266 267 269 270 270 271 272 271 271 273 273 275 277 278 278 278 279 280 281 282 282 281 281 280 280 280 280 280 280 280 279
270 271 271 272 272 272 272 272 271 270 268 267 267 268 269 270 270 269 270 271 271 272 274 275 277 278 278 278 279 280 281 281 282 281 281 280 280 280 281 281 281 281 280
272 272 272 273 273 272 270 270 269 269 269 269 268 269 269 269 270 270 271 271 272 274 274 275 276 277 278 278 278 279 280 280 280 280 280 280 280 281 282 282 281 281 281
272 271 271 272 272 270 269 269 269 269 269 269 268 268 269 269 270 271 271 272 273 273 274 274 275 276 278 279 279 279 278 278 278 278 279 279 280 281 283 283 283 281 281
271 271 272 272 271 270 270 270 270 269 268 268 269 270 270 269 269 270 271 272 273 273 274 275 275 276 278 278 278 278 277 276 276 277 278 279 279 280 282 284 285 283 281
272 272 272 272 272 272 271 270 269 269 268 269 270 270 270 269 269 270 270 271 272 273 274 275 276 278 278 279 278 277 276 275 274 275 276 277 278 279 281 283 284 284 283
274 274 273 272 272 272 272 271 270 269 268 268 268 269 269 269 269 269 270 271 271 271 272 275 276 277 278 279 278 277 276 275 274 275 275 277 279 280 281 282 283 283 282
274 273 273 273 272 273 272 272 272 270 268 267 267 268 268 268 269 269 270 271 271 270 272 274 276 276 276 276 276 276 276 276 275 276 276 277 279 280 281 282 282 283 283